Weather History for Norwood, MA

Change the Weather History Date:

Wednesday, March 27, 2013

  Actual Average Record
Temperature  
Mean Temperature 40 °F -  
Max Temperature 55 °F 48 °F 78 °F (1998)
Min Temperature 26 °F 31 °F 19 °F (2014)
Degree Days  
Heating Degree Days 25    
Moisture  
Dew Point 23 °F    
Average Humidity 50    
Maximum Humidity 92    
Minimum Humidity 29    
Precipitation  
Precipitation 0.00 in - - ()
Sea Level Pressure  
Sea Level Pressure 29.79 in    
Wind  
Wind Speed 4 mph (NW)    
Max Wind Speed 15 mph    
Max Gust Speed 21 mph    
Visibility 10 miles    
Events      
Averages and records for this station are not official NWS values.
T = Trace of Precipitation, MM = Missing Value Source: NWS Daily Summary

Daily Weather History Graph

Daily Weather History Graph

Search for Another Location

Airport:

Trip Planner

Search our weather history database for the weather conditions in past years. The results will help you decide how hot, cold, wet, or windy it might be!

Date:

Astronomy

Mar. 27, 2013 Rise Set
Actual Time 6:35 AM EDT 7:05 PM EDT
Civil Twilight 6:07 AM EDT 7:33 PM EDT
Nautical Twilight 5:34 AM EDT 8:06 PM EDT
Astronomical Twilight 5:00 AM EDT 8:40 PM EDT
Moon 7:46 PM EDT (3/27) 6:23 AM EDT (3/27)
Length of Visible Light 13h 25m
Length of Day
12h 29m
Full, 100% of the Moon is Illuminated
Mar 27
Full
Apr 3
Last Quarter
Apr 10
New
Apr 18
First Quarter
Apr 25
Full

Hourly Weather History & Observations

Time (EDT) Temp. Windchill Dew Point Humidity Pressure Visibility Wind Dir Wind Speed Gust Speed Precip Events Conditions
12:53 AM 37.9 °F - 19.0 °F 47% 29.78 in 10.0 mi Calm Calm - N/A   Clear
1:53 AM 30.0 °F 26.5 °F 23.0 °F 75% 29.79 in 10.0 mi SSW 3.5 mph - N/A   Clear
2:53 AM 30.0 °F - 21.9 °F 72% 29.78 in 10.0 mi Calm Calm - N/A   Clear
3:53 AM 28.9 °F - 23.0 °F 78% 29.78 in 10.0 mi Calm Calm - N/A   Clear
4:53 AM 27.0 °F - 24.1 °F 89% 29.78 in 10.0 mi Calm Calm - N/A   Clear
5:53 AM 26.1 °F - 23.0 °F 88% 29.79 in 10.0 mi Calm Calm - N/A   Clear
6:53 AM 26.1 °F - 24.1 °F 92% 29.80 in 10.0 mi Calm Calm - N/A   Clear
7:53 AM 36.0 °F - 23.0 °F 59% 29.81 in 10.0 mi Calm Calm - N/A   Clear
8:53 AM 44.1 °F 40.8 °F 23.0 °F 43% 29.80 in 10.0 mi NW 5.8 mph - N/A   Clear
9:53 AM 48.0 °F - 23.0 °F 37% 29.80 in 10.0 mi NNW 9.2 mph 18.4 mph N/A   Clear
10:53 AM 48.9 °F - 21.9 °F 35% 29.78 in 10.0 mi NW 9.2 mph 19.6 mph N/A   Clear
11:53 AM 52.0 °F - 24.1 °F 34% 29.76 in 10.0 mi NW 11.5 mph 16.1 mph N/A   Clear
12:53 PM 54.0 °F - 23.0 °F 30% 29.75 in 10.0 mi West 11.5 mph - N/A   Mostly Cloudy
1:53 PM 52.0 °F - 21.9 °F 31% 29.75 in 10.0 mi NW 15.0 mph 19.6 mph N/A   Overcast
2:53 PM 53.1 °F - 21.9 °F 30% 29.75 in 10.0 mi WNW 12.7 mph 20.7 mph N/A   Overcast
3:53 PM 53.1 °F - 21.0 °F 29% 29.74 in 10.0 mi NNW 10.4 mph 19.6 mph N/A   Overcast
4:53 PM 52.0 °F - 21.9 °F 31% 29.75 in 10.0 mi West 11.5 mph 19.6 mph N/A   Overcast
5:53 PM 51.1 °F - 21.9 °F 32% 29.78 in 10.0 mi NW 8.1 mph - N/A   Overcast
6:53 PM 48.9 °F - 21.9 °F 35% 29.80 in 10.0 mi NNW 8.1 mph 17.3 mph N/A   Clear
7:53 PM 46.9 °F - 21.9 °F 37% 29.82 in 10.0 mi NNW 3.5 mph - N/A   Mostly Cloudy
8:53 PM 46.0 °F 42.5 °F 27.0 °F 47% 29.84 in 10.0 mi ENE 6.9 mph - N/A   Mostly Cloudy
9:53 PM 46.0 °F 41.4 °F 27.0 °F 47% 29.86 in 10.0 mi North 9.2 mph 19.6 mph N/A   Overcast
10:53 PM 45.0 °F 39.7 °F 28.0 °F 52% 29.86 in 10.0 mi NNW 10.4 mph 20.7 mph N/A   Overcast
11:53 PM 43.0 °F 37.2 °F 30.0 °F 60% 29.86 in 10.0 mi NNW 10.4 mph - N/A   Overcast